DAL2655 KMSP-KBOS

Flight info

Callsign DAL2655
Flight time 2h 17m
Altitude 35000
Route WLSTN7 GRB DAYYY Q140 HANKK Q935 PONCT JFUND2
Aircraft A321/M-SDE3FGHIRWY/LB1

Departure

Time 2026-05-05 14:53
Airport Minneapolis–Saint Paul International Airport / Wold–Chamberlain Field (KMSP)

Arrival

Time 2026-05-05 17:10
Airport Boston Logan International Airport (KBOS)
Time Latitude Longitude Altitude Speed Heading
2026-05-05 14:05 44.88580 -93.21108 825 ft 0 kts 143°
2026-05-05 14:45 44.88583 -93.21111 824 ft 3 kts 143°
2026-05-05 14:45 44.88602 -93.21132 822 ft 4 kts 136°
2026-05-05 14:46 44.88615 -93.21153 822 ft 4 kts 74°
2026-05-05 14:46 44.88614 -93.21158 824 ft 0 kts 27°
2026-05-05 14:48 44.88619 -93.21155 823 ft 4 kts 27°
2026-05-05 14:48 44.88687 -93.21097 823 ft 17 kts 46°
2026-05-05 14:48 44.88668 -93.20948 825 ft 16 kts 121°
2026-05-05 14:48 44.88614 -93.20822 823 ft 14 kts 121°
2026-05-05 14:49 44.88561 -93.20699 822 ft 17 kts 121°
2026-05-05 14:49 44.88487 -93.20531 823 ft 21 kts 122°
2026-05-05 14:49 44.88417 -93.20368 825 ft 19 kts 121°
2026-05-05 14:49 44.88352 -93.20217 825 ft 17 kts 121°
2026-05-05 14:50 44.88294 -93.20083 825 ft 15 kts 121°
2026-05-05 14:50 44.88243 -93.19963 825 ft 13 kts 121°
2026-05-05 14:50 44.88197 -93.19860 823 ft 12 kts 121°
2026-05-05 14:50 44.88158 -93.19769 825 ft 10 kts 121°
2026-05-05 14:51 44.88125 -93.19693 825 ft 8 kts 121°
2026-05-05 14:51 44.88097 -93.19627 825 ft 10 kts 121°
2026-05-05 14:51 44.88058 -93.19515 825 ft 12 kts 95°
2026-05-05 14:51 44.88103 -93.19442 824 ft 10 kts 19°
2026-05-05 14:52 44.88158 -93.19475 825 ft 8 kts 307°
2026-05-05 14:52 44.88201 -93.19573 825 ft 27 kts 302°
2026-05-05 14:52 44.88437 -93.20119 827 ft 100 kts 301°
2026-05-05 14:52 44.88908 -93.21200 828 ft 156 kts 303°
2026-05-05 14:53 44.89534 -93.22567 1308 ft 165 kts 307°
2026-05-05 14:53 44.90289 -93.23779 2109 ft 166 kts 322°
2026-05-05 14:53 44.91333 -93.24418 2789 ft 164 kts 350°
2026-05-05 14:53 44.92455 -93.24230 3365 ft 167 kts 19°
2026-05-05 14:54 44.93405 -93.23208 3787 ft 181 kts 46°
2026-05-05 14:54 44.94187 -93.21723 4093 ft 197 kts 50°
2026-05-05 14:54 44.95007 -93.20047 4252 ft 217 kts 50°
2026-05-05 14:54 44.95923 -93.18207 4395 ft 242 kts 49°
2026-05-05 14:55 44.96955 -93.16196 4789 ft 260 kts 49°
2026-05-05 14:55 44.98043 -93.14125 5527 ft 265 kts 47°
2026-05-05 14:55 44.99164 -93.12036 6300 ft 269 kts 47°
2026-05-05 14:55 45.00317 -93.09925 6991 ft 274 kts 46°
2026-05-05 14:56 45.01501 -93.07784 7715 ft 278 kts 46°
2026-05-05 14:56 45.02709 -93.05615 8432 ft 283 kts 46°
2026-05-05 14:56 45.03943 -93.03408 9128 ft 289 kts 46°
2026-05-05 14:56 45.05197 -93.01163 9843 ft 293 kts 46°
2026-05-05 14:57 45.06477 -92.98870 10315 ft 305 kts 46°
2026-05-05 14:57 45.07849 -92.96429 10454 ft 328 kts 46°
2026-05-05 14:57 45.09313 -92.93823 10685 ft 346 kts 46°
2026-05-05 14:57 45.10822 -92.91116 11231 ft 353 kts 47°
2026-05-05 14:58 45.12347 -92.88356 11837 ft 359 kts 47°
2026-05-05 14:58 45.13894 -92.85552 12449 ft 363 kts 47°
2026-05-05 14:58 45.15462 -92.82714 13063 ft 368 kts 46°
2026-05-05 14:58 45.17049 -92.79840 13713 ft 372 kts 47°
2026-05-05 14:59 45.18655 -92.76933 14276 ft 377 kts 47°
2026-05-05 14:59 45.20276 -92.73990 14837 ft 381 kts 47°
2026-05-05 14:59 45.21915 -92.71015 15403 ft 385 kts 47°
2026-05-05 14:59 45.23552 -92.67984 15978 ft 390 kts 51°
2026-05-05 15:00 45.24902 -92.64596 16519 ft 400 kts 62°
2026-05-05 15:00 45.25557 -92.62140 16875 ft 405 kts 70°
2026-05-05 15:00 45.26382 -92.56860 17584 ft 413 kts 76°
2026-05-05 15:00 45.26946 -92.52837 18107 ft 417 kts 76°
2026-05-05 15:01 45.27516 -92.48779 18542 ft 421 kts 76°
2026-05-05 15:01 45.28094 -92.44679 18960 ft 426 kts 76°
2026-05-05 15:01 45.28681 -92.40532 19369 ft 431 kts 76°
2026-05-05 15:01 45.29275 -92.36339 19770 ft 435 kts 76°
2026-05-05 15:02 45.29872 -92.32101 20167 ft 440 kts 76°
2026-05-05 15:02 45.30474 -92.27812 20525 ft 446 kts 76°
2026-05-05 15:02 45.31085 -92.23474 20892 ft 451 kts 76°
2026-05-05 15:02 45.31703 -92.19085 21272 ft 455 kts 76°
2026-05-05 15:03 45.32321 -92.14657 21654 ft 460 kts 76°
2026-05-05 15:03 45.32941 -92.10173 22038 ft 464 kts 77°
2026-05-05 15:03 45.33562 -92.05650 22410 ft 469 kts 77°
2026-05-05 15:03 45.34184 -92.01083 22783 ft 473 kts 77°
2026-05-05 15:04 45.34811 -91.96475 23149 ft 477 kts 77°
2026-05-05 15:04 45.35444 -91.91822 23509 ft 481 kts 77°
2026-05-05 15:04 45.36083 -91.87136 23845 ft 484 kts 77°
2026-05-05 15:04 45.36728 -91.82419 24147 ft 488 kts 77°
2026-05-05 15:05 45.37794 -91.74527 24877 ft 488 kts 77°
2026-05-05 15:05 45.38649 -91.68173 25339 ft 491 kts 76°
2026-05-05 15:05 45.39075 -91.65005 25536 ft 493 kts 76°
2026-05-05 15:06 45.39720 -91.60201 25819 ft 497 kts 76°
2026-05-05 15:06 45.40370 -91.55354 26084 ft 500 kts 76°
2026-05-05 15:06 45.41021 -91.50467 26318 ft 505 kts 76°
2026-05-05 15:06 45.41680 -91.45535 26574 ft 509 kts 76°
2026-05-05 15:07 45.42353 -91.40501 26837 ft 512 kts 76°
2026-05-05 15:07 45.43015 -91.35504 27079 ft 516 kts 76°
2026-05-05 15:07 45.43670 -91.30531 27340 ft 519 kts 76°
2026-05-05 15:07 45.44343 -91.25398 27611 ft 523 kts 76°
2026-05-05 15:08 45.45007 -91.20291 27862 ft 526 kts 76°
2026-05-05 15:08 45.45672 -91.15154 28141 ft 529 kts 77°
2026-05-05 15:08 45.46240 -91.10035 28439 ft 532 kts 83°
2026-05-05 15:08 45.46341 -91.04682 28695 ft 536 kts 93°
2026-05-05 15:09 45.45920 -90.99388 28917 ft 539 kts 102°
2026-05-05 15:09 45.44996 -90.94224 29141 ft 538 kts 111°
2026-05-05 15:09 45.43608 -90.89285 29331 ft 538 kts 118°
2026-05-05 15:09 45.42107 -90.84465 29552 ft 541 kts 118°
2026-05-05 15:10 45.40582 -90.79556 29773 ft 543 kts 118°
2026-05-05 15:10 45.39055 -90.74621 29962 ft 546 kts 118°
2026-05-05 15:10 45.37521 -90.69676 30113 ft 549 kts 118°
2026-05-05 15:10 45.35967 -90.64693 30259 ft 552 kts 118°
2026-05-05 15:11 45.34409 -90.59702 30560 ft 552 kts 118°
2026-05-05 15:11 45.32852 -90.54729 30910 ft 550 kts 118°
2026-05-05 15:11 45.31297 -90.49777 31272 ft 548 kts 118°
2026-05-05 15:11 45.29746 -90.44845 31632 ft 546 kts 118°
2026-05-05 15:12 45.28177 -90.39872 32020 ft 544 kts 118°
2026-05-05 15:12 45.26632 -90.34989 32355 ft 542 kts 119°
2026-05-05 15:12 45.25108 -90.30181 32706 ft 540 kts 118°
2026-05-05 15:12 45.23568 -90.25323 33067 ft 538 kts 118°
2026-05-05 15:13 45.22034 -90.20491 33422 ft 536 kts 118°
2026-05-05 15:13 45.20499 -90.15684 33788 ft 534 kts 118°
2026-05-05 15:13 45.18964 -90.10906 34026 ft 532 kts 119°
2026-05-05 15:13 45.17428 -90.06132 34244 ft 532 kts 119°
2026-05-05 15:14 45.15896 -90.01362 34478 ft 532 kts 119°
2026-05-05 15:14 45.14366 -89.96601 34702 ft 531 kts 119°
2026-05-05 15:14 45.12836 -89.91847 34807 ft 532 kts 119°
2026-05-05 15:15 45.09733 -89.82244 34832 ft 540 kts 119°
2026-05-05 15:15 45.06605 -89.72574 34834 ft 541 kts 119°
2026-05-05 15:16 45.03467 -89.62892 34835 ft 541 kts 119°
2026-05-05 15:16 45.00321 -89.53236 34828 ft 541 kts 119°
2026-05-05 15:17 44.97162 -89.43584 34807 ft 541 kts 120°
2026-05-05 15:17 44.94001 -89.33927 34820 ft 542 kts 120°
2026-05-05 15:18 44.90825 -89.24263 34832 ft 542 kts 120°
2026-05-05 15:18 44.87632 -89.14625 34827 ft 542 kts 120°
2026-05-05 15:19 44.84430 -89.05006 34835 ft 542 kts 120°
2026-05-05 15:19 44.81224 -88.95414 34848 ft 541 kts 121°
2026-05-05 15:20 44.78014 -88.85821 34850 ft 541 kts 121°
2026-05-05 15:20 44.74805 -88.76249 34861 ft 540 kts 121°
2026-05-05 15:21 44.71593 -88.66702 34846 ft 540 kts 121°
2026-05-05 15:21 44.68369 -88.57172 34848 ft 539 kts 121°
2026-05-05 15:22 44.65143 -88.47664 34841 ft 539 kts 121°
2026-05-05 15:22 44.61912 -88.38184 34847 ft 538 kts 122°
2026-05-05 15:23 44.58678 -88.28722 34811 ft 537 kts 123°
2026-05-05 15:23 44.55805 -88.18989 34820 ft 548 kts 110°
2026-05-05 15:24 44.54596 -88.08379 34814 ft 554 kts 100°
2026-05-05 15:24 44.53691 -87.97647 34813 ft 555 kts 101°
2026-05-05 15:25 44.52747 -87.86909 34814 ft 555 kts 101°
2026-05-05 15:25 44.51800 -87.76167 34814 ft 556 kts 101°
2026-05-05 15:26 44.50851 -87.65425 34809 ft 556 kts 101°
2026-05-05 15:26 44.49901 -87.54661 34808 ft 557 kts 101°
2026-05-05 15:27 44.48940 -87.43895 34809 ft 557 kts 101°
2026-05-05 15:27 44.47959 -87.33131 34815 ft 557 kts 102°
2026-05-05 15:28 44.46966 -87.22407 34809 ft 558 kts 102°
2026-05-05 15:28 44.45963 -87.11628 34814 ft 559 kts 102°
2026-05-05 15:29 44.44956 -87.00834 34823 ft 560 kts 102°
2026-05-05 15:29 44.43936 -86.90033 34829 ft 560 kts 102°
2026-05-05 15:30 44.42899 -86.79206 34818 ft 561 kts 102°
2026-05-05 15:30 44.41843 -86.68374 34821 ft 562 kts 102°
2026-05-05 15:31 44.40779 -86.57539 34827 ft 563 kts 102°
2026-05-05 15:31 44.39709 -86.46685 34817 ft 564 kts 102°
2026-05-05 15:32 44.38635 -86.35819 34824 ft 565 kts 102°
2026-05-05 15:32 44.37542 -86.24941 34824 ft 565 kts 102°
2026-05-05 15:33 44.36430 -86.14060 34809 ft 565 kts 102°
2026-05-05 15:33 44.35306 -86.03203 34817 ft 565 kts 102°
2026-05-05 15:34 44.34182 -85.92347 34829 ft 564 kts 102°
2026-05-05 15:34 44.33058 -85.81500 34827 ft 564 kts 102°
2026-05-05 15:35 44.31910 -85.70663 34819 ft 564 kts 102°
2026-05-05 15:35 44.30755 -85.59853 34820 ft 563 kts 102°
2026-05-05 15:36 44.29591 -85.49051 34808 ft 563 kts 103°
2026-05-05 15:36 44.28420 -85.38278 34796 ft 562 kts 103°
2026-05-05 15:37 44.27238 -85.27461 34810 ft 562 kts 103°
2026-05-05 15:37 44.26057 -85.16772 34809 ft 562 kts 103°
2026-05-05 15:38 44.24860 -85.05938 34806 ft 561 kts 103°
2026-05-05 15:38 44.23659 -84.95167 34800 ft 561 kts 103°
2026-05-05 15:39 44.22439 -84.84437 34801 ft 560 kts 103°
2026-05-05 15:39 44.21209 -84.73715 34806 ft 560 kts 103°
2026-05-05 15:40 44.19976 -84.63050 34793 ft 559 kts 103°
2026-05-05 15:40 44.18741 -84.52399 34800 ft 559 kts 103°
2026-05-05 15:41 44.17497 -84.41763 34804 ft 559 kts 102°
2026-05-05 15:41 44.17254 -84.30765 34794 ft 564 kts 88°
2026-05-05 15:42 44.17750 -84.19869 34789 ft 564 kts 88°
2026-05-05 15:42 44.18234 -84.08965 34793 ft 563 kts 88°
2026-05-05 15:43 44.18716 -83.98075 34793 ft 563 kts 88°
2026-05-05 15:43 44.19194 -83.87176 34780 ft 563 kts 88°
2026-05-05 15:44 44.19661 -83.76298 34791 ft 562 kts 88°
2026-05-05 15:44 44.20104 -83.65433 34794 ft 562 kts 88°
2026-05-05 15:45 44.20535 -83.54562 34785 ft 561 kts 88°
2026-05-05 15:45 44.20888 -83.45548 34778 ft 560 kts 89°
2026-05-05 15:46 44.21312 -83.34711 34793 ft 559 kts 89°
2026-05-05 15:46 44.21718 -83.23895 34791 ft 559 kts 89°
2026-05-05 15:47 44.22110 -83.13071 34790 ft 559 kts 89°
2026-05-05 15:47 44.22491 -83.02255 34793 ft 558 kts 89°
2026-05-05 15:48 44.22859 -82.91443 34792 ft 558 kts 89°
2026-05-05 15:48 44.23219 -82.80645 34799 ft 558 kts 89°
2026-05-05 15:49 44.23572 -82.69847 34799 ft 557 kts 89°
2026-05-05 15:49 44.23920 -82.59067 34799 ft 556 kts 89°
2026-05-05 15:50 44.24253 -82.48293 34804 ft 556 kts 90°
2026-05-05 15:50 44.24556 -82.37527 34796 ft 555 kts 90°
2026-05-05 15:51 44.24507 -82.26792 34804 ft 550 kts 101°
2026-05-05 15:51 44.22881 -82.16466 34809 ft 544 kts 110°
2026-05-05 15:52 44.20940 -82.06285 34821 ft 543 kts 110°
2026-05-05 15:52 44.18989 -81.96109 34821 ft 543 kts 110°
2026-05-05 15:53 44.17041 -81.85941 34816 ft 543 kts 110°
2026-05-05 15:53 44.15081 -81.75785 34803 ft 543 kts 110°
2026-05-05 15:54 44.13097 -81.65624 34803 ft 543 kts 111°
2026-05-05 15:54 44.11107 -81.55475 34771 ft 543 kts 110°
2026-05-05 15:55 44.09117 -81.45330 34732 ft 544 kts 110°
2026-05-05 15:55 44.07120 -81.35183 34740 ft 544 kts 110°
2026-05-05 15:56 44.05103 -81.25049 34744 ft 543 kts 110°
2026-05-05 15:56 44.03086 -81.14939 34757 ft 543 kts 110°
2026-05-05 15:57 44.01060 -81.04836 34761 ft 542 kts 110°
2026-05-05 15:57 43.99032 -80.94756 34761 ft 542 kts 110°
2026-05-05 15:58 43.97012 -80.84769 34746 ft 540 kts 110°
2026-05-05 15:58 43.94972 -80.74743 34753 ft 539 kts 110°
2026-05-05 15:59 43.92929 -80.64736 34754 ft 538 kts 110°
2026-05-05 15:59 43.90889 -80.54751 34742 ft 538 kts 111°
2026-05-05 16:00 43.88829 -80.44802 34720 ft 537 kts 110°
2026-05-05 16:00 43.86749 -80.34864 34728 ft 536 kts 110°
2026-05-05 16:01 43.84675 -80.24942 34721 ft 536 kts 110°
2026-05-05 16:01 43.82605 -80.15037 34704 ft 535 kts 110°
2026-05-05 16:02 43.80522 -80.05160 34715 ft 534 kts 111°
2026-05-05 16:02 43.78424 -79.95305 34714 ft 534 kts 111°
2026-05-05 16:03 43.76324 -79.85472 34701 ft 532 kts 110°
2026-05-05 16:03 43.74226 -79.75683 34701 ft 530 kts 110°
2026-05-05 16:04 43.72124 -79.65928 34735 ft 529 kts 110°
2026-05-05 16:04 43.70012 -79.56206 34737 ft 528 kts 110°
2026-05-05 16:05 43.67892 -79.46504 34726 ft 527 kts 111°
2026-05-05 16:05 43.65771 -79.36834 34720 ft 524 kts 110°
2026-05-05 16:06 43.63457 -79.27335 34741 ft 519 kts 115°
2026-05-05 16:06 43.60794 -79.18113 34737 ft 516 kts 117°
2026-05-05 16:07 43.58071 -79.08948 34719 ft 515 kts 116°
2026-05-05 16:07 43.55456 -78.99757 34727 ft 514 kts 116°
2026-05-05 16:08 43.52905 -78.90583 34731 ft 511 kts 115°
2026-05-05 16:08 43.50342 -78.81459 34733 ft 510 kts 116°
2026-05-05 16:09 43.47753 -78.72380 34728 ft 509 kts 116°
2026-05-05 16:09 43.45176 -78.63316 34679 ft 508 kts 116°
2026-05-05 16:10 43.42595 -78.54280 34689 ft 507 kts 116°
2026-05-05 16:10 43.39996 -78.45255 34704 ft 507 kts 116°
2026-05-05 16:11 43.37387 -78.36253 34709 ft 507 kts 116°
2026-05-05 16:12 43.32151 -78.18268 34726 ft 507 kts 116°
2026-05-05 16:13 43.24052 -77.97083 34733 ft 500 kts 125°
2026-05-05 16:13 43.20596 -77.88816 34733 ft 499 kts 125°
2026-05-05 16:14 43.13679 -77.72350 34749 ft 498 kts 125°
2026-05-05 16:15 43.06769 -77.55940 34742 ft 497 kts 125°
2026-05-05 16:16 42.99836 -77.39647 34760 ft 495 kts 126°
2026-05-05 16:17 42.94631 -77.27456 34759 ft 495 kts 126°
2026-05-05 16:18 42.90092 -77.14764 34731 ft 505 kts 109°
2026-05-05 16:18 42.89174 -77.05224 34726 ft 511 kts 95°
2026-05-05 16:19 42.89035 -77.00385 34745 ft 511 kts 95°
2026-05-05 16:19 42.88586 -76.85827 34713 ft 512 kts 95°
2026-05-05 16:20 42.87955 -76.66402 34737 ft 513 kts 95°
2026-05-05 16:22 42.87105 -76.42159 34748 ft 512 kts 95°
2026-05-05 16:23 42.86400 -76.22825 34754 ft 510 kts 95°
2026-05-05 16:23 42.85852 -76.08361 34756 ft 508 kts 95°
2026-05-05 16:24 42.85468 -75.98826 34774 ft 507 kts 95°
2026-05-05 16:25 42.84891 -75.84468 34789 ft 505 kts 95°
2026-05-05 16:25 42.84300 -75.70136 34794 ft 504 kts 95°
2026-05-05 16:26 42.83455 -75.51114 34798 ft 502 kts 95°
2026-05-05 16:27 42.83098 -75.43156 34794 ft 502 kts 95°
2026-05-05 16:27 42.82677 -75.33733 34791 ft 500 kts 95°
2026-05-05 16:28 42.82244 -75.24290 34793 ft 499 kts 95°
2026-05-05 16:28 42.81799 -75.14872 34792 ft 498 kts 95°
2026-05-05 16:29 42.81346 -75.05457 34755 ft 498 kts 95°
2026-05-05 16:29 42.80891 -74.96063 34764 ft 497 kts 95°
2026-05-05 16:30 42.80431 -74.86667 34765 ft 497 kts 96°
2026-05-05 16:30 42.79964 -74.77271 34772 ft 497 kts 96°
2026-05-05 16:31 42.79482 -74.67874 34773 ft 497 kts 96°
2026-05-05 16:31 42.78988 -74.58481 34778 ft 498 kts 96°
2026-05-05 16:32 42.78489 -74.49078 34773 ft 498 kts 96°
2026-05-05 16:32 42.77988 -74.39657 34770 ft 499 kts 96°
2026-05-05 16:33 42.77488 -74.30232 34766 ft 499 kts 96°
2026-05-05 16:33 42.76981 -74.20815 34775 ft 499 kts 96°
2026-05-05 16:34 42.76457 -74.11391 34777 ft 499 kts 96°
2026-05-05 16:34 42.75917 -74.01967 34784 ft 499 kts 96°
2026-05-05 16:35 42.75371 -73.92566 34806 ft 498 kts 96°
2026-05-05 16:35 42.74823 -73.83194 34820 ft 496 kts 96°
2026-05-05 16:36 42.74474 -73.73817 34820 ft 496 kts 92°
2026-05-05 16:36 42.74493 -73.64439 34800 ft 496 kts 90°
2026-05-05 16:37 42.74549 -73.55077 34815 ft 495 kts 90°
2026-05-05 16:37 42.74497 -73.45729 34843 ft 494 kts 91°
2026-05-05 16:38 42.74377 -73.36387 34844 ft 493 kts 92°
2026-05-05 16:38 42.74267 -73.27058 34847 ft 493 kts 91°
2026-05-05 16:39 42.74164 -73.17730 34845 ft 493 kts 91°
2026-05-05 16:39 42.73751 -73.08453 34840 ft 491 kts 100°
2026-05-05 16:40 42.72688 -72.99283 34839 ft 491 kts 100°
2026-05-05 16:40 42.71629 -72.90120 34845 ft 490 kts 100°
2026-05-05 16:41 42.70569 -72.81006 34293 ft 486 kts 100°
2026-05-05 16:41 42.70037 -72.76484 33739 ft 483 kts 100°
2026-05-05 16:41 42.69505 -72.72008 33138 ft 476 kts 100°
2026-05-05 16:42 42.68975 -72.67578 31649 ft 476 kts 101°
2026-05-05 16:42 42.68445 -72.63137 30361 ft 474 kts 101°
2026-05-05 16:42 42.67924 -72.58751 29127 ft 467 kts 101°
2026-05-05 16:42 42.67407 -72.54435 27981 ft 457 kts 102°
2026-05-05 16:43 42.66900 -72.50223 26884 ft 447 kts 102°
2026-05-05 16:43 42.66398 -72.46092 25797 ft 439 kts 102°
2026-05-05 16:43 42.65905 -72.42043 24761 ft 430 kts 103°
2026-05-05 16:43 42.65419 -72.38072 23758 ft 422 kts 103°
2026-05-05 16:44 42.64937 -72.34169 22611 ft 415 kts 103°
2026-05-05 16:44 42.64463 -72.30329 21467 ft 410 kts 103°
2026-05-05 16:44 42.64017 -72.26584 20712 ft 395 kts 103°
2026-05-05 16:44 42.63592 -72.22929 19793 ft 388 kts 103°
2026-05-05 16:45 42.63178 -72.19337 19331 ft 384 kts 103°
2026-05-05 16:45 42.62763 -72.15758 18844 ft 384 kts 103°
2026-05-05 16:45 42.62338 -72.12161 18309 ft 386 kts 103°
2026-05-05 16:45 42.61907 -72.08568 17803 ft 385 kts 103°
2026-05-05 16:46 42.61480 -72.04988 17376 ft 382 kts 103°
2026-05-05 16:46 42.61056 -72.01449 16953 ft 379 kts 103°
2026-05-05 16:46 42.60625 -71.97933 16525 ft 376 kts 103°
2026-05-05 16:46 42.60191 -71.94448 16118 ft 374 kts 103°
2026-05-05 16:47 42.59754 -71.90980 15726 ft 371 kts 103°
2026-05-05 16:47 42.59319 -71.87538 15402 ft 369 kts 103°
2026-05-05 16:47 42.58889 -71.84117 15003 ft 368 kts 103°
2026-05-05 16:47 42.58452 -71.80702 14602 ft 366 kts 105°
2026-05-05 16:48 42.57960 -71.77323 14199 ft 364 kts 106°
2026-05-05 16:48 42.57428 -71.73970 13783 ft 363 kts 106°
2026-05-05 16:48 42.56882 -71.70636 13365 ft 362 kts 107°
2026-05-05 16:48 42.56336 -71.67314 12961 ft 360 kts 107°
2026-05-05 16:49 42.55796 -71.64012 12555 ft 358 kts 106°
2026-05-05 16:49 42.55266 -71.60725 12149 ft 356 kts 106°
2026-05-05 16:49 42.54719 -71.57467 11770 ft 353 kts 108°
2026-05-05 16:49 42.54099 -71.54265 11438 ft 349 kts 111°
2026-05-05 16:50 42.53437 -71.51114 11112 ft 347 kts 111°
2026-05-05 16:50 42.52758 -71.47985 10785 ft 345 kts 112°
2026-05-05 16:50 42.52077 -71.44868 10450 ft 343 kts 112°
2026-05-05 16:50 42.51412 -71.41779 10173 ft 338 kts 111°
2026-05-05 16:51 42.50775 -71.38762 10044 ft 327 kts 111°
2026-05-05 16:51 42.50163 -71.35826 9807 ft 321 kts 111°
2026-05-05 16:51 42.49578 -71.32952 9392 ft 321 kts 111°
2026-05-05 16:51 42.48995 -71.30038 8996 ft 319 kts 111°
2026-05-05 16:52 42.48418 -71.27134 8587 ft 318 kts 111°
2026-05-05 16:52 42.47844 -71.24248 8157 ft 318 kts 111°
2026-05-05 16:52 42.47274 -71.21382 7864 ft 313 kts 111°
2026-05-05 16:52 42.46742 -71.18527 7462 ft 315 kts 104°
2026-05-05 16:53 42.46674 -71.15545 7060 ft 320 kts 86°
2026-05-05 16:53 42.47232 -71.12625 6703 ft 323 kts 68°
2026-05-05 16:53 42.48219 -71.09941 6564 ft 312 kts 64°
2026-05-05 16:53 42.49355 -71.07499 6430 ft 302 kts 47°
2026-05-05 16:54 42.50895 -71.05671 6287 ft 289 kts 27°
2026-05-05 16:54 42.52680 -71.04553 6041 ft 278 kts 14°
2026-05-05 16:54 42.54485 -71.03673 5992 ft 275 kts 14°
2026-05-05 16:54 42.56289 -71.02794 5998 ft 276 kts 14°
2026-05-05 16:55 42.58091 -71.01906 5990 ft 276 kts 17°
2026-05-05 16:55 42.59710 -71.00465 5677 ft 286 kts 50°
2026-05-05 16:55 42.60518 -70.98066 5326 ft 279 kts 89°
2026-05-05 16:55 42.60264 -70.95561 5003 ft 263 kts 119°
2026-05-05 16:56 42.59335 -70.93482 4463 ft 259 kts 142°
2026-05-05 16:56 42.57916 -70.92084 4067 ft 247 kts 164°
2026-05-05 16:56 42.56319 -70.91506 3817 ft 232 kts 182°
2026-05-05 16:56 42.54749 -70.91674 3555 ft 223 kts 200°
2026-05-05 16:57 42.53298 -70.92347 3280 ft 220 kts 204°
2026-05-05 16:57 42.51865 -70.93047 3019 ft 217 kts 204°
2026-05-05 16:57 42.50464 -70.93728 2729 ft 211 kts 203°
2026-05-05 16:57 42.49109 -70.94387 2453 ft 203 kts 201°
2026-05-05 16:58 42.47797 -70.95025 2202 ft 196 kts 200°
2026-05-05 16:58 42.46577 -70.95616 1956 ft 176 kts 200°
2026-05-05 16:58 42.45505 -70.96137 1747 ft 153 kts 200°
2026-05-05 16:58 42.44529 -70.96611 1531 ft 144 kts 201°
2026-05-05 16:59 42.43583 -70.97071 1347 ft 143 kts 202°
2026-05-05 16:59 42.42653 -70.97523 1173 ft 144 kts 202°
2026-05-05 16:59 42.41722 -70.97985 983 ft 143 kts 200°
2026-05-05 16:59 42.40800 -70.98432 806 ft 137 kts 200°
2026-05-05 17:00 42.39871 -70.98866 603 ft 143 kts 204°
2026-05-05 17:00 42.38932 -70.99320 394 ft 143 kts 202°
2026-05-05 17:00 42.38019 -70.99771 201 ft 138 kts 202°
2026-05-05 17:00 42.37129 -71.00208 38 ft 132 kts 200°
2026-05-05 17:01 42.36342 -71.00597 45 ft 118 kts 202°
2026-05-05 17:01 42.35517 -71.00983 633 ft 127 kts 202°
2026-05-05 17:01 42.34656 -71.01385 1351 ft 136 kts 200°
2026-05-05 17:01 42.33714 -71.01803 1966 ft 156 kts 202°
2026-05-05 17:02 42.32570 -71.02279 2419 ft 190 kts 195°
2026-05-05 17:02 42.31154 -71.02077 2671 ft 222 kts 162°
2026-05-05 17:02 42.29923 -71.00719 2876 ft 242 kts 129°
2026-05-05 17:02 42.29324 -70.98539 2967 ft 255 kts 97°
2026-05-05 17:03 42.29369 -70.96121 2983 ft 260 kts 87°
2026-05-05 17:03 42.29553 -70.93694 2978 ft 260 kts 86°
2026-05-05 17:03 42.29773 -70.91272 2981 ft 261 kts 82°
2026-05-05 17:03 42.30489 -70.89028 2980 ft 262 kts 49°
2026-05-05 17:04 42.31861 -70.87457 2972 ft 259 kts 29°
2026-05-05 17:04 42.33410 -70.86199 2981 ft 260 kts 26°
2026-05-05 17:04 42.34977 -70.84969 2979 ft 260 kts 26°
2026-05-05 17:04 42.36546 -70.83761 2982 ft 259 kts 25°
2026-05-05 17:05 42.38129 -70.82587 2979 ft 259 kts 22°
2026-05-05 17:05 42.39819 -70.81914 2999 ft 250 kts 360°
2026-05-05 17:05 42.41543 -70.81725 2986 ft 247 kts 356°
2026-05-05 17:05 42.43192 -70.82047 2983 ft 233 kts 327°
2026-05-05 17:06 42.44393 -70.83364 2981 ft 219 kts 301°
2026-05-05 17:06 42.45256 -70.85048 2972 ft 218 kts 296°
2026-05-05 17:06 42.46067 -70.86784 2975 ft 217 kts 296°
2026-05-05 17:06 42.46608 -70.88643 2887 ft 211 kts 271°
2026-05-05 17:07 42.46678 -70.90622 2671 ft 209 kts 266°
2026-05-05 17:07 42.46658 -70.92570 2437 ft 206 kts 264°
2026-05-05 17:07 42.46502 -70.94439 2196 ft 191 kts 245°
2026-05-05 17:07 42.45707 -70.95755 1969 ft 177 kts 217°
2026-05-05 17:08 42.44716 -70.96519 1922 ft 154 kts 204°
2026-05-05 17:08 42.43751 -70.96966 1750 ft 140 kts 200°
2026-05-05 17:08 42.43136 -70.97237 1549 ft 137 kts 201°
2026-05-05 17:08 42.41999 -70.97824 1121 ft 130 kts 204°
2026-05-05 17:09 42.41423 -70.98134 887 ft 132 kts 201°
2026-05-05 17:09 42.40556 -70.98545 675 ft 132 kts 201°
2026-05-05 17:09 42.39670 -70.98948 497 ft 132 kts 205°
2026-05-05 17:09 42.38807 -70.99369 333 ft 130 kts 200°
2026-05-05 17:10 42.37947 -70.99804 144 ft 133 kts 201°
2026-05-05 17:10 42.37091 -71.00227 36 ft 129 kts 199°
2026-05-05 17:10 42.36370 -71.00575 28 ft 83 kts 200°
2026-05-05 17:10 42.36037 -71.00741 27 ft 25 kts 213°
2026-05-05 17:11 42.35922 -71.00908 27 ft 24 kts 229°
2026-05-05 17:11 42.35835 -71.01081 29 ft 21 kts 262°
2026-05-05 17:11 42.35848 -71.01273 30 ft 21 kts 277°
2026-05-05 17:11 42.35869 -71.01460 25 ft 20 kts 281°
2026-05-05 17:12 42.35894 -71.01644 27 ft 20 kts 279°
2026-05-05 17:12 42.35925 -71.01822 30 ft 18 kts 291°
2026-05-05 17:12 42.35979 -71.01955 29 ft 16 kts 300°
2026-05-05 17:12 42.36032 -71.02077 30 ft 15 kts 301°
2026-05-05 17:13 42.36081 -71.02187 29 ft 14 kts 301°
2026-05-05 17:13 42.36145 -71.02273 27 ft 12 kts 341°
2026-05-05 17:13 42.36215 -71.02316 27 ft 11 kts 298°
2026-05-05 17:13 42.36225 -71.02411 25 ft 9 kts 274°
2026-05-05 17:14 42.36227 -71.02437 25 ft 0 kts 273°